Location: Archamps
(46.1365°N, 6.1329°E)
Time: 10:03:58
(UTC+00:00)

CZ-6A DEB - Pass Details

Date: 27 February 2024
Orbit: 823 x 884 km, 98.8° (Epoch: 12 April)

Event Time Altitude Azimuth Distance (km) Brightness Sun altitude
Rises 05:39:20 0° 17° (NNE) 3,401 ? -7.7°
Reaches altitude 10° 05:41:45 10° 21° (NNE) 2,454 ? -7.3°
Maximum altitude 05:47:07 61° 102° (ESE) 939 ? -6.3°
Drops below altitude 10° 05:52:24 10° 182° (S) 2,417 ? -5.4°
Sets 05:54:46 0° 186° (S) 3,344 ? -5.0°
